| time (UTC) | temp F | wind direction | speed MPH | gust MPH | rain 1hr in | rain 24hr in | rain mn in | humidity % | barometer mb |
| 20260502164039 | 52 | 157 | 0.0 | 9.0 | 0.00 | 0.22 | 0.02 | 54 | 1021.2 |
| 20260502163538 | 52 | 92 | 2.0 | 11.0 | 0.00 | 0.22 | 0.02 | 52 | 1021.2 |
| 20260502163105 | 52 | 203 | 2.0 | 11.0 | 0.00 | 0.22 | 0.02 | 52 | 1021.2 |
| 20260502162538 | 52 | 62 | 2.0 | 9.0 | 0.00 | 0.22 | 0.02 | 51 | 1021.2 |
| 20260502162038 | 52 | 171 | 2.0 | 9.0 | 0.00 | 0.22 | 0.02 | 51 | 1021.2 |
| 20260502161551 | 52 | 151 | 4.0 | 9.0 | 0.00 | 0.22 | 0.02 | 51 | 1021.2 |
| 20260502161038 | 52 | 44 | 2.0 | 7.0 | 0.00 | 0.22 | 0.02 | 56 | 1021.2 |
| 20260502160539 | 52 | 145 | 2.0 | 9.0 | 0.00 | 0.22 | 0.02 | 54 | 1021.2 |
| 20260502152038 | 50 | 150 | 2.0 | 7.0 | 0.00 | 0.22 | 0.02 | 56 | 1021.2 |
| 20260502151556 | 49 | 115 | 3.0 | 8.0 | 0.00 | 0.22 | 0.02 | 54 | 1021.2 |
| 20260502151039 | 49 | 185 | 2.0 | 8.0 | 0.00 | 0.22 | 0.02 | 55 | 1021.2 |
| 20260502150538 | 49 | 171 | 1.0 | 6.0 | 0.00 | 0.22 | 0.02 | 56 | 1021.2 |
| 20260502130539 | 40 | 0 | 0.0 | 1.0 | 0.00 | 0.25 | 0.02 | 96 | 1021.2 |
| 20260502123539 | 39 | 0 | 0.0 | 2.0 | 0.00 | 0.40 | 0.02 | 96 | 1021.2 |
| 20260502123044 | 38 | 0 | 0.0 | 5.0 | 0.00 | 0.40 | 0.02 | 96 | 1021.2 |
| 20260502122539 | 38 | 61 | 0.0 | 6.0 | 0.00 | 0.40 | 0.02 | 96 | 1021.2 |
| 20260502122040 | 38 | 0 | 1.0 | 6.0 | 0.00 | 0.40 | 0.02 | 96 | 1021.2 |
| 20260502121547 | 38 | 0 | 1.0 | 6.0 | 0.00 | 0.40 | 0.02 | 96 | 1021.2 |
| 20260502121040 | 37 | 0 | 0.0 | 3.0 | 0.00 | 0.40 | 0.02 | 96 | 1021.2 |
| 20260502120536 | 37 | 0 | 0.0 | 2.0 | 0.00 | 0.40 | 0.02 | 96 | 1021.2 |
| 20260502115539 | 38 | 0 | 0.0 | 4.0 | 0.00 | 0.44 | 0.02 | 96 | 1021.2 |
| 20260502115039 | 38 | 0 | 0.0 | 4.0 | 0.00 | 0.44 | 0.02 | 96 | 1021.2 |
| 20260502114625 | 38 | 75 | 0.0 | 3.0 | 0.00 | 0.44 | 0.02 | 96 | 1021.2 |
| 20260502114038 | 38 | 99 | 0.0 | 3.0 | 0.00 | 0.44 | 0.02 | 96 | 1021.2 |
| 20260502113541 | 39 | 98 | 0.0 | 3.0 | 0.00 | 0.44 | 0.02 | 96 | 1021.2 |
| 20260502113044 | 39 | 0 | 0.0 | 0.0 | 0.00 | 0.44 | 0.02 | 96 | 1021.2 |
| 20260502112539 | 40 | 0 | 0.0 | 0.0 | 0.00 | 0.44 | 0.02 | 96 | 1021.2 |
| 20260502112037 | 40 | 0 | 0.0 | 0.0 | 0.00 | 0.44 | 0.02 | 96 | 1021.2 |
| 20260502111546 | 40 | 0 | 0.0 | 7.0 | 0.00 | 0.44 | 0.02 | 96 | 1021.2 |
| 20260502111042 | 40 | 0 | 1.0 | 7.0 | 0.00 | 0.44 | 0.02 | 96 | 1021.2 |
| 20260502110541 | 40 | 0 | 2.0 | 7.0 | 0.00 | 0.44 | 0.02 | 96 | 1021.2 |
| 20260502110047 | 41 | 98 | 0.0 | 4.0 | 0.00 | 0.44 | 0.02 | 96 | 1021.2 |
| 20260502105540 | 41 | 0 | 0.0 | 8.0 | 0.00 | 0.44 | 0.02 | 96 | 1021.2 |
| 20260502105038 | 41 | 78 | 2.0 | 8.0 | 0.00 | 0.44 | 0.02 | 96 | 1021.2 |
| 20260502104547 | 41 | 105 | 0.0 | 8.0 | 0.00 | 0.44 | 0.02 | 96 | 1021.2 |
| 20260502104038 | 41 | 148 | 2.0 | 8.0 | 0.00 | 0.44 | 0.02 | 96 | 1021.2 |
| 20260502103538 | 41 | 129 | 1.0 | 8.0 | 0.00 | 0.44 | 0.02 | 96 | 1021.2 |
| 20260502103043 | 42 | 62 | 0.0 | 5.0 | 0.00 | 0.44 | 0.02 | 96 | 1021.2 |
| 20260502102538 | 41 | 59 | 0.0 | 5.0 | 0.00 | 0.44 | 0.02 | 96 | 1021.2 |
| 20260502102036 | 41 | 70 | 1.0 | 4.0 | 0.00 | 0.44 | 0.02 | 96 | 1021.2 |
| 20260502101600 | 41 | 0 | 0.0 | 4.0 | 0.00 | 0.44 | 0.02 | 96 | 1021.2 |
| 20260502101038 | 41 | 0 | 0.0 | 5.0 | 0.01 | 0.44 | 0.02 | 96 | 1021.2 |
| 20260502100538 | 41 | 0 | 0.0 | 5.0 | 0.01 | 0.44 | 0.02 | 96 | 1021.2 |
| 20260502091040 | 42 | 0 | 0.0 | 4.0 | 0.00 | 0.43 | 0.01 | 96 | 1021.2 |
| 20260502090542 | 42 | 0 | 1.0 | 4.0 | 0.01 | 0.43 | 0.01 | 96 | 1021.2 |
| 20260502071039 | 43 | 53 | 0.0 | 7.0 | 0.00 | 0.42 | 0.00 | 96 | 1021.2 |
| 20260502070539 | 43 | 0 | 0.0 | 6.0 | 0.00 | 0.42 | 0.00 | 96 | 1021.2 |
| 20260502070059 | 43 | 0 | 0.0 | 4.0 | 0.00 | 0.42 | 0.00 | 96 | 1021.2 |
| 20260502065539 | 43 | 0 | 0.0 | 4.0 | 0.00 | 0.42 | 0.00 | 96 | 1021.2 |
| 20260502065038 | 43 | 70 | 0.0 | 4.0 | 0.00 | 0.42 | 0.00 | 96 | 1021.2 |
| 20260502064614 | 43 | 0 | 0.0 | 5.0 | 0.00 | 0.42 | 0.00 | 96 | 1021.2 |
| 20260502064038 | 43 | 88 | 0.0 | 5.0 | 0.00 | 0.42 | 0.00 | 96 | 1021.2 |
| 20260502063540 | 43 | 114 | 0.0 | 5.0 | 0.00 | 0.42 | 0.00 | 96 | 1021.2 |
| 20260502063101 | 43 | 0 | 0.0 | 3.0 | 0.00 | 0.42 | 0.00 | 96 | 1021.2 |
| 20260502062540 | 43 | 28 | 0.0 | 9.0 | 0.00 | 0.42 | 0.00 | 96 | 1021.2 |
| 20260502062040 | 43 | 0 | 0.0 | 9.0 | 0.00 | 0.42 | 0.00 | 96 | 1021.2 |
| 20260502061546 | 43 | 76 | 0.0 | 3.0 | 0.00 | 0.42 | 0.00 | 96 | 1021.2 |
| 20260502061040 | 43 | 0 | 0.0 | 5.0 | 0.00 | 0.42 | 0.00 | 96 | 1021.2 |
| 20260502060542 | 43 | 0 | 0.0 | 6.0 | 0.00 | 0.42 | 0.00 | 96 | 1021.2 |
| 20260502060049 | 43 | 72 | 0.0 | 6.0 | 0.00 | 0.42 | 0.00 | 96 | 1021.2 |
| 20260502055542 | 43 | 91 | 1.0 | 6.0 | 0.00 | 0.42 | 0.00 | 96 | 1021.2 |
| 20260502055040 | 43 | 84 | 0.0 | 6.0 | 0.00 | 0.42 | 0.00 | 96 | 1021.2 |
| 20260502054552 | 43 | 72 | 1.0 | 7.0 | 0.00 | 0.42 | 0.00 | 95 | 1021.2 |
| 20260502054038 | 43 | 72 | 2.0 | 10.0 | 0.00 | 0.42 | 0.00 | 95 | 1021.2 |
| 20260502053539 | 43 | 61 | 3.0 | 11.0 | 0.00 | 0.42 | 0.00 | 95 | 1021.2 |
| 20260502053056 | 43 | 67 | 2.0 | 11.0 | 0.00 | 0.42 | 0.00 | 95 | 1021.2 |
| 20260502052539 | 43 | 75 | 2.0 | 11.0 | 0.00 | 0.42 | 0.00 | 95 | 1021.2 |
| 20260502052039 | 43 | 19 | 1.0 | 9.0 | 0.00 | 0.42 | 0.00 | 95 | 1021.2 |
| 20260502051550 | 43 | 43 | 3.0 | 9.0 | 0.00 | 0.42 | 0.00 | 95 | 1021.2 |
| 20260502051041 | 43 | 60 | 1.0 | 10.0 | 0.00 | 0.42 | 0.00 | 95 | 1021.2 |
| 20260502050539 | 43 | 64 | 2.0 | 10.0 | 0.00 | 0.42 | 0.00 | 95 | 1021.2 |
| 20260502050055 | 43 | 0 | 2.0 | 12.0 | 0.00 | 0.42 | 0.00 | 95 | 1021.2 |
| 20260502045540 | 43 | 309 | 2.0 | 13.0 | 0.00 | 0.42 | 0.42 | 95 | 1021.2 |
| 20260502045040 | 43 | 82 | 5.0 | 13.0 | 0.00 | 0.42 | 0.42 | 95 | 1021.2 |
| 20260502044557 | 43 | 75 | 4.0 | 12.0 | 0.00 | 0.42 | 0.42 | 95 | 1021.2 |
| 20260502044040 | 44 | 0 | 3.0 | 11.0 | 0.00 | 0.42 | 0.42 | 95 | 1021.2 |
| 20260502043540 | 44 | 60 | 3.0 | 11.0 | 0.00 | 0.42 | 0.42 | 95 | 1021.2 |
| 20260502043124 | 44 | 51 | 3.0 | 9.0 | 0.00 | 0.42 | 0.42 | 95 | 1021.2 |
| 20260502042539 | 44 | 0 | 1.0 | 8.0 | 0.00 | 0.42 | 0.42 | 95 | 1021.2 |
| 20260502042039 | 44 | 58 | 2.0 | 8.0 | 0.00 | 0.42 | 0.42 | 95 | 1021.2 |
| 20260502041601 | 44 | 0 | 2.0 | 9.0 | 0.00 | 0.42 | 0.42 | 95 | 1021.2 |
| 20260502041041 | 45 | 45 | 1.0 | 9.0 | 0.00 | 0.42 | 0.42 | 95 | 1021.2 |
| 20260502040542 | 45 | 0 | 1.0 | 10.0 | 0.00 | 0.42 | 0.42 | 95 | 1021.2 |
| 20260502040048 | 45 | 0 | 3.0 | 10.0 | 0.01 | 0.42 | 0.42 | 95 | 1021.2 |
| 20260502035539 | 45 | 73 | 3.0 | 9.0 | 0.01 | 0.42 | 0.42 | 95 | 1021.2 |
| 20260502035039 | 45 | 0 | 3.0 | 10.0 | 0.01 | 0.42 | 0.42 | 95 | 1021.2 |
| 20260502034549 | 45 | 0 | 2.0 | 12.0 | 0.01 | 0.42 | 0.42 | 95 | 1021.2 |
| 20260502034039 | 45 | 0 | 3.0 | 12.0 | 0.01 | 0.42 | 0.42 | 95 | 1021.2 |
| 20260502033539 | 45 | 70 | 2.0 | 8.0 | 0.01 | 0.42 | 0.42 | 95 | 1021.2 |
| 20260502033051 | 45 | 68 | 1.0 | 11.0 | 0.01 | 0.42 | 0.42 | 95 | 1021.2 |
| 20260502032538 | 45 | 0 | 3.0 | 11.0 | 0.01 | 0.42 | 0.42 | 95 | 1021.2 |
| 20260502032038 | 45 | 68 | 4.0 | 12.0 | 0.01 | 0.42 | 0.42 | 95 | 1021.2 |
| 20260502031551 | 45 | 72 | 4.0 | 13.0 | 0.01 | 0.42 | 0.42 | 95 | 1021.2 |
| 20260502031038 | 45 | 354 | 4.0 | 17.0 | 0.01 | 0.42 | 0.42 | 95 | 1021.2 |
| 20260502030539 | 46 | 64 | 5.0 | 17.0 | 0.01 | 0.42 | 0.42 | 95 | 1021.2 |
| 20260502030056 | 46 | 83 | 3.0 | 11.0 | 0.00 | 0.41 | 0.41 | 95 | 1021.2 |
| 20260502025539 | 46 | 84 | 1.0 | 11.0 | 0.00 | 0.41 | 0.41 | 95 | 1021.2 |
| 20260502025040 | 46 | 0 | 3.0 | 11.0 | 0.00 | 0.41 | 0.41 | 95 | 1021.2 |
| 20260502024551 | 47 | 278 | 2.0 | 9.0 | 0.02 | 0.41 | 0.41 | 95 | 1021.2 |
| 20260502024042 | 47 | 0 | 3.0 | 9.0 | 0.03 | 0.41 | 0.41 | 95 | 1021.2 |
| 20260502023541 | 47 | 77 | 1.0 | 8.0 | 0.03 | 0.41 | 0.41 | 95 | 1021.2 |
| 20260502023050 | 47 | 0 | 3.0 | 15.0 | 0.03 | 0.41 | 0.41 | 95 | 1021.2 |
| 20260502022539 | 47 | 67 | 0.0 | 15.0 | 0.03 | 0.41 | 0.41 | 95 | 1021.2 |
| 20260502022038 | 47 | 74 | 3.0 | 9.0 | 0.03 | 0.41 | 0.41 | 95 | 1021.2 |
| 20260502021554 | 47 | 26 | 2.0 | 9.0 | 0.03 | 0.41 | 0.41 | 95 | 1021.2 |
| 20260502021040 | 48 | 60 | 0.0 | 7.0 | 0.03 | 0.41 | 0.41 | 95 | 1021.2 |
| 20260502020543 | 48 | 73 | 1.0 | 9.0 | 0.03 | 0.41 | 0.41 | 95 | 1021.2 |
| 20260502020047 | 48 | 70 | 2.0 | 9.0 | 0.03 | 0.41 | 0.41 | 94 | 1021.2 |
| 20260502015539 | 48 | 0 | 0.0 | 4.0 | 0.03 | 0.41 | 0.41 | 94 | 1021.2 |
| 20260502015041 | 48 | 75 | 0.0 | 11.0 | 0.03 | 0.41 | 0.41 | 94 | 1021.2 |
| 20260502014553 | 48 | 0 | 1.0 | 11.0 | 0.01 | 0.39 | 0.39 | 94 | 1021.2 |
| 20260502014039 | 48 | 72 | 0.0 | 11.0 | 0.00 | 0.38 | 0.38 | 93 | 1021.2 |
| 20260502013539 | 49 | 322 | 4.0 | 11.0 | 0.00 | 0.38 | 0.38 | 92 | 1021.2 |
| 20260502013057 | 49 | 68 | 3.0 | 11.0 | 0.00 | 0.38 | 0.38 | 90 | 1021.2 |
| 20260502012539 | 49 | 70 | 0.0 | 7.0 | 0.00 | 0.38 | 0.38 | 90 | 1021.2 |
| 20260502012039 | 49 | 79 | 2.0 | 8.0 | 0.00 | 0.38 | 0.38 | 90 | 1021.2 |
| 20260502011556 | 49 | 86 | 3.0 | 8.0 | 0.00 | 0.38 | 0.38 | 91 | 1021.2 |
| 20260502011038 | 49 | 82 | 1.0 | 7.0 | 0.00 | 0.38 | 0.38 | 91 | 1021.2 |
| 20260502010539 | 49 | 60 | 3.0 | 9.0 | 0.00 | 0.38 | 0.38 | 91 | 1021.2 |
| 20260502010104 | 49 | 57 | 0.0 | 9.0 | 0.00 | 0.38 | 0.38 | 91 | 1021.2 |
| 20260502005539 | 49 | 46 | 3.0 | 9.0 | 0.00 | 0.38 | 0.38 | 90 | 1021.2 |
| 20260502005039 | 50 | 59 | 1.0 | 12.0 | 0.00 | 0.38 | 0.38 | 90 | 1021.2 |
| 20260502004547 | 50 | 70 | 3.0 | 12.0 | 0.00 | 0.38 | 0.38 | 89 | 1021.2 |
| 20260502004039 | 50 | 63 | 3.0 | 12.0 | 0.00 | 0.38 | 0.38 | 88 | 1021.2 |
| 20260502003538 | 50 | 0 | 3.0 | 12.0 | 0.00 | 0.38 | 0.38 | 87 | 1021.2 |
| 20260502003053 | 51 | 106 | 2.0 | 11.0 | 0.00 | 0.38 | 0.38 | 87 | 1021.2 |
| 20260502002539 | 51 | 106 | 3.0 | 11.0 | 0.00 | 0.38 | 0.38 | 87 | 1021.2 |
| 20260502002039 | 51 | 33 | 3.0 | 10.0 | 0.00 | 0.38 | 0.38 | 86 | 1021.2 |
| 20260502001550 | 52 | 68 | 4.0 | 9.0 | 0.00 | 0.38 | 0.38 | 85 | 1021.2 |
| 20260502001039 | 52 | 66 | 2.0 | 9.0 | 0.00 | 0.38 | 0.38 | 84 | 1021.2 |
| 20260502000539 | 53 | 63 | 1.0 | 9.0 | 0.00 | 0.38 | 0.38 | 83 | 1021.2 |
| 20260502000051 | 53 | 93 | 1.0 | 10.0 | 0.00 | 0.38 | 0.38 | 83 | 1021.2 |
| 20260501235538 | 53 | 64 | 4.0 | 11.0 | 0.00 | 0.38 | 0.38 | 83 | 1021.2 |
| 20260501235039 | 54 | 100 | 3.0 | 11.0 | 0.00 | 0.38 | 0.38 | 81 | 1021.2 |
| 20260501234549 | 54 | 70 | 2.0 | 11.0 | 0.00 | 0.38 | 0.38 | 81 | 1021.2 |
| 20260501234039 | 55 | 0 | 2.0 | 8.0 | 0.00 | 0.38 | 0.38 | 81 | 1021.2 |
| 20260501233540 | 55 | 353 | 0.0 | 5.0 | 0.00 | 0.38 | 0.38 | 79 | 1021.2 |
| 20260501233105 | 55 | 0 | 1.0 | 6.0 | 0.00 | 0.38 | 0.38 | 79 | 1021.2 |
| 20260501232538 | 55 | 322 | 1.0 | 6.0 | 0.00 | 0.38 | 0.38 | 79 | 1021.2 |
| 20260501232043 | 55 | 69 | 0.0 | 7.0 | 0.00 | 0.38 | 0.38 | 78 | 1021.2 |
| 20260501231609 | 55 | 0 | 1.0 | 8.0 | 0.00 | 0.38 | 0.38 | 78 | 1021.2 |
| 20260501231039 | 56 | 310 | 1.0 | 8.0 | 0.00 | 0.38 | 0.38 | 77 | 1021.2 |
| 20260501230539 | 56 | 64 | 1.0 | 8.0 | 0.00 | 0.38 | 0.38 | 77 | 1021.2 |
| 20260501230057 | 57 | 65 | 1.0 | 9.0 | 0.00 | 0.38 | 0.38 | 75 | 1021.2 |
| 20260501225539 | 58 | 347 | 1.0 | 9.0 | 0.00 | 0.38 | 0.38 | 73 | 1021.2 |
| 20260501225038 | 58 | 0 | 1.0 | 7.0 | 0.00 | 0.38 | 0.38 | 74 | 1021.2 |
| 20260501224554 | 58 | 68 | 1.0 | 8.0 | 0.00 | 0.38 | 0.38 | 75 | 1021.2 |
| 20260501224039 | 58 | 158 | 2.0 | 8.0 | 0.00 | 0.38 | 0.38 | 74 | 1021.2 |
| 20260501223539 | 58 | 59 | 3.0 | 8.0 | 0.00 | 0.38 | 0.38 | 74 | 1021.2 |
| 20260501223051 | 58 | 84 | 4.0 | 11.0 | 0.00 | 0.38 | 0.38 | 74 | 1021.2 |
| 20260501222539 | 59 | 49 | 6.0 | 11.0 | 0.00 | 0.38 | 0.38 | 71 | 1021.2 |
| 20260501222039 | 61 | 60 | 1.0 | 5.0 | 0.00 | 0.38 | 0.38 | 64 | 1021.2 |
| 20260501221546 | 62 | 0 | 1.0 | 5.0 | 0.00 | 0.38 | 0.38 | 58 | 1021.2 |
| 20260501221038 | 62 | 0 | 1.0 | 5.0 | 0.00 | 0.38 | 0.38 | 49 | 1021.2 |
| 20260501220540 | 63 | 0 | 0.0 | 6.0 | 0.00 | 0.38 | 0.38 | 47 | 1021.2 |
| 20260501220100 | 63 | 308 | 0.0 | 6.0 | 0.00 | 0.38 | 0.38 | 48 | 1021.2 |
| 20260501215540 | 64 | 317 | 1.0 | 11.0 | 0.00 | 0.38 | 0.38 | 45 | 1021.2 |
| 20260501215040 | 65 | 0 | 1.0 | 11.0 | 0.00 | 0.38 | 0.38 | 44 | 1021.2 |
| 20260501214545 | 65 | 0 | 1.0 | 8.0 | 0.00 | 0.38 | 0.38 | 48 | 1021.2 |
| 20260501214039 | 65 | 319 | 1.0 | 6.0 | 0.00 | 0.38 | 0.38 | 45 | 1021.2 |
| 20260501213539 | 64 | 0 | 1.0 | 9.0 | 0.00 | 0.38 | 0.38 | 46 | 1021.2 |
| 20260501213047 | 64 | 0 | 1.0 | 9.0 | 0.00 | 0.38 | 0.38 | 51 | 1021.2 |
| 20260501212542 | 64 | 291 | 1.0 | 7.0 | 0.00 | 0.38 | 0.38 | 52 | 1021.2 |
| 20260501212039 | 64 | 18 | 0.0 | 7.0 | 0.00 | 0.38 | 0.38 | 49 | 1021.2 |
| 20260501211558 | 64 | 269 | 0.0 | 5.0 | 0.00 | 0.38 | 0.38 | 49 | 1021.2 |
| 20260501211038 | 64 | 0 | 0.0 | 6.0 | 0.00 | 0.38 | 0.38 | 51 | 1021.2 |
| 20260501210540 | 63 | 0 | 0.0 | 12.0 | 0.00 | 0.38 | 0.38 | 51 | 1021.2 |
| 20260501210047 | 62 | 236 | 3.0 | 12.0 | 0.00 | 0.38 | 0.38 | 49 | 1021.2 |
| 20260501205540 | 62 | 0 | 4.0 | 12.0 | 0.00 | 0.38 | 0.38 | 49 | 1021.2 |
| 20260501205040 | 63 | 210 | 2.0 | 8.0 | 0.00 | 0.38 | 0.38 | 46 | 1021.2 |
| 20260501204557 | 62 | 243 | 2.0 | 7.0 | 0.00 | 0.38 | 0.38 | 50 | 1021.2 |
| 20260501204039 | 63 | 246 | 1.0 | 9.0 | 0.00 | 0.38 | 0.38 | 49 | 1021.2 |
| 20260501203540 | 62 | 198 | 1.0 | 9.0 | 0.00 | 0.38 | 0.38 | 50 | 1021.2 |
| 20260501203046 | 61 | 310 | 1.0 | 5.0 | 0.00 | 0.38 | 0.38 | 53 | 1021.2 |
| 20260501202539 | 61 | 0 | 0.0 | 6.0 | 0.00 | 0.38 | 0.38 | 50 | 1021.2 |
| 20260501202039 | 61 | 300 | 1.0 | 6.0 | 0.00 | 0.38 | 0.38 | 50 | 1021.2 |
| 20260501201609 | 61 | 292 | 1.0 | 8.0 | 0.00 | 0.38 | 0.38 | 49 | 1021.2 |
| 20260501201038 | 61 | 302 | 1.0 | 10.0 | 0.00 | 0.38 | 0.38 | 51 | 1021.2 |
| 20260501200540 | 61 | 264 | 3.0 | 12.0 | 0.00 | 0.38 | 0.38 | 48 | 1021.2 |
| 20260501200047 | 62 | 203 | 3.0 | 12.0 | 0.00 | 0.38 | 0.38 | 48 | 1021.2 |
| 20260501195539 | 62 | 0 | 1.0 | 12.0 | 0.00 | 0.38 | 0.38 | 49 | 1021.2 |
| 20260501195039 | 61 | 15 | 2.0 | 7.0 | 0.00 | 0.38 | 0.38 | 50 | 1021.2 |
| 20260501194548 | 61 | 0 | 2.0 | 15.0 | 0.00 | 0.38 | 0.38 | 52 | 1021.2 |
| 20260501194042 | 62 | 19 | 3.0 | 15.0 | 0.00 | 0.38 | 0.38 | 48 | 1021.2 |
| 20260501193540 | 62 | 0 | 3.0 | 14.0 | 0.00 | 0.38 | 0.38 | 53 | 1021.2 |
| 20260501193045 | 61 | 345 | 4.0 | 14.0 | 0.00 | 0.38 | 0.38 | 48 | 1021.2 |
| 20260501192540 | 62 | 8 | 2.0 | 8.0 | 0.00 | 0.38 | 0.38 | 54 | 1021.2 |
| 20260501192040 | 61 | 268 | 2.0 | 10.0 | 0.00 | 0.38 | 0.38 | 53 | 1021.2 |
| 20260501191548 | 61 | 278 | 2.0 | 10.0 | 0.00 | 0.38 | 0.38 | 55 | 1021.2 |
| 20260501191039 | 61 | 345 | 4.0 | 10.0 | 0.00 | 0.38 | 0.38 | 52 | 1021.2 |
| 20260501190539 | 60 | 322 | 3.0 | 11.0 | 0.00 | 0.38 | 0.38 | 55 | 1021.2 |
| 20260501190046 | 61 | 284 | 4.0 | 11.0 | 0.00 | 0.38 | 0.38 | 54 | 1021.2 |
| 20260501185539 | 61 | 352 | 1.0 | 10.0 | 0.00 | 0.38 | 0.38 | 60 | 1021.2 |
| 20260501185041 | 60 | 0 | 4.0 | 10.0 | 0.00 | 0.38 | 0.38 | 56 | 1021.2 |
| 20260501184551 | 60 | 220 | 2.0 | 8.0 | 0.00 | 0.38 | 0.38 | 59 | 1021.2 |
| 20260501184039 | 59 | 290 | 1.0 | 8.0 | 0.00 | 0.38 | 0.38 | 66 | 1021.2 |
| 20260501183539 | 58 | 0 | 0.0 | 8.0 | 0.00 | 0.38 | 0.38 | 75 | 1021.2 |
| 20260501183053 | 57 | 34 | 2.0 | 10.0 | 0.00 | 0.38 | 0.38 | 84 | 1021.2 |
| 20260501182539 | 55 | 275 | 2.0 | 10.0 | 0.00 | 0.38 | 0.38 | 93 | 1021.2 |
| 20260501182039 | 54 | 227 | 4.0 | 10.0 | 0.00 | 0.38 | 0.38 | 92 | 1021.2 |
| 20260501181545 | 54 | 266 | 2.0 | 6.0 | 0.00 | 0.38 | 0.38 | 91 | 1021.2 |
| 20260501181039 | 54 | 0 | 1.0 | 6.0 | 0.00 | 0.38 | 0.38 | 94 | 1021.2 |
| 20260501180539 | 54 | 216 | 1.0 | 5.0 | 0.00 | 0.38 | 0.38 | 95 | 1021.2 |
| 20260501180052 | 53 | 238 | 0.0 | 5.0 | 0.00 | 0.38 | 0.38 | 94 | 1021.2 |
| 20260501175539 | 52 | 278 | 0.0 | 4.0 | 0.00 | 0.38 | 0.38 | 93 | 1021.2 |
| 20260501175039 | 53 | 0 | 0.0 | 4.0 | 0.00 | 0.38 | 0.38 | 95 | 1021.2 |
| 20260501174545 | 52 | 0 | 0.0 | 4.0 | 0.00 | 0.38 | 0.38 | 95 | 1021.2 |